Location: Kikino
(54.4440°N, 112.0940°W)
Time: 17:49:20
(UTC+00:00)

A-11 Canister half - Pass Details

Date: 24 May 2024
Orbit: 1525 x 1683 km, 47.3° (Epoch: 12 June)

Event Time Altitude Azimuth Distance (km) Brightness Sun altitude
Rises 04:15:49 0° 218° (SW) 4,677 11.5 -4.5°
Reaches altitude 10° 04:19:06 10° 211° (SSW) 3,709 10.9 -4.8°
Maximum altitude 04:27:23 37° 148° (SSE) 2,264 9.4 -5.6°
Drops below altitude 10° 04:35:53 10° 86° (E) 3,817 10.7 -6.4°
Sets 04:39:18 0° 79° (E) 4,828 11.3 -6.7°
